TimePDT,TemperatureF,Dew PointF,Humidity,Sea Level PressureIn,VisibilityMPH,Wind Direction,Wind SpeedMPH,Gust SpeedMPH,PrecipitationIn,Events,Conditions,WindDirDegrees,DateUTC
12:53 AM,61.0,51.1,70,29.99,10.0,WSW,11.5,-,N/A,,Clear,240,2013-07-31 07:53:00
1:53 AM,62.1,52.0,70,29.97,10.0,SW,8.1,-,N/A,,Clear,230,2013-07-31 08:53:00
2:53 AM,60.1,52.0,75,29.98,10.0,WSW,6.9,-,N/A,,Clear,250,2013-07-31 09:53:00
3:53 AM,59.0,51.1,75,29.98,10.0,WSW,4.6,-,N/A,,Clear,240,2013-07-31 10:53:00
4:53 AM,57.0,51.1,81,29.98,10.0,WSW,8.1,-,N/A,,Clear,240,2013-07-31 11:53:00
5:53 AM,55.9,50.0,80,29.99,10.0,WSW,8.1,-,N/A,,Clear,250,2013-07-31 12:53:00
6:53 AM,57.0,50.0,77,30.00,10.0,SW,9.2,-,N/A,,Mostly Cloudy,230,2013-07-31 13:53:00
7:53 AM,63.0,51.1,65,30.02,10.0,SW,6.9,-,N/A,,Partly Cloudy,230,2013-07-31 14:53:00
8:53 AM,66.0,51.1,59,30.03,10.0,WSW,6.9,-,N/A,,Scattered Clouds,250,2013-07-31 15:53:00
9:53 AM,69.1,51.1,53,30.04,10.0,WSW,8.1,-,N/A,,Clear,240,2013-07-31 16:53:00
10:53 AM,73.9,52.0,46,30.04,10.0,Variable,3.5,-,N/A,,Clear,0,2013-07-31 17:53:00
11:53 AM,77.0,52.0,42,30.02,10.0,South,5.8,-,N/A,,Clear,180,2013-07-31 18:53:00
12:53 PM,81.0,52.0,36,30.00,10.0,South,6.9,-,N/A,,Clear,190,2013-07-31 19:53:00
1:53 PM,84.9,51.1,31,29.98,10.0,South,4.6,-,N/A,,Clear,190,2013-07-31 20:53:00
2:53 PM,91.0,50.0,24,29.96,10.0,South,10.4,16.1,N/A,,Clear,180,2013-07-31 21:53:00
3:53 PM,90.0,46.9,23,29.94,10.0,SW,12.7,24.2,N/A,,Clear,220,2013-07-31 22:53:00
4:53 PM,84.9,51.1,31,29.93,10.0,SW,15.0,24.2,N/A,,Clear,220,2013-07-31 23:53:00
5:53 PM,79.0,52.0,39,29.93,10.0,SSW,15.0,23.0,N/A,,Clear,200,2013-08-01 00:53:00
6:53 PM,77.0,52.0,42,29.92,10.0,South,11.5,19.6,N/A,,Clear,190,2013-08-01 01:53:00
7:53 PM,73.0,51.1,46,29.93,10.0,ESE,9.2,-,N/A,,Clear,110,2013-08-01 02:53:00
8:53 PM,70.0,50.0,49,29.93,10.0,South,6.9,-,N/A,,Clear,170,2013-08-01 03:53:00
9:53 PM,66.9,50.0,54,29.93,10.0,SSE,6.9,-,N/A,,Clear,150,2013-08-01 04:53:00
10:53 PM,64.9,50.0,58,29.93,10.0,South,10.4,-,N/A,,Clear,190,2013-08-01 05:53:00
11:53 PM,63.0,50.0,63,29.94,10.0,SSW,6.9,-,N/A,,Clear,200,2013-08-01 06:53:00